Theta_e
342 344 346 347 348 347 347 347 348 348 348 348 348 348 348 347 345 345 346 345 345 345 344 344 343 344 342 342 341 340 338 335 335 337 338 334 331 329 327 323 321 319 319 321 323 324 325 324 323 320 316 311
338 340 343 343 344 344 343 345 346 346 346 346 346 344 343 342 341 343 344 344 343 343 343 344 343 343 342 341 341 339 337 336 338 337 335 333 331 329 327 324 320 318 319 320 321 322 324 323 321 319 316 308
338 334 338 340 340 341 341 342 343 344 341 341 341 340 339 337 336 337 339 341 342 340 339 338 339 342 343 341 340 338 337 336 337 335 334 332 331 329 327 323 320 318 318 319 319 320 321 319 317 315 309 304
339 334 331 335 337 337 338 339 340 339 337 337 335 336 334 331 331 332 335 331 335 335 337 335 333 338 341 342 341 337 335 335 336 334 333 332 330 328 326 323 319 316 316 317 317 317 317 315 312 302 301 301
340 339 330 331 331 333 334 335 336 336 332 330 330 330 329 326 331 333 335 333 337 330 335 329 327 335 339 340 338 336 338 335 336 334 333 331 330 328 325 320 317 316 318 317 315 314 312 309 300 299 300 301
341 340 334 338 338 335 335 331 330 333 333 328 329 325 329 330 330 332 333 335 332 334 333 329 324 329 334 337 333 334 336 335 335 334 332 331 329 327 321 314 299 297 305 310 311 310 307 296 295 296 297 298
339 340 339 338 339 338 332 333 331 335 333 332 331 331 332 329 331 332 333 334 333 333 327 330 322 326 330 334 331 331 333 336 335 333 332 330 328 323 315 300 295 291 289 290 302 300 294 292 293 294 295 296
339 339 339 339 339 338 337 337 335 336 336 335 333 333 332 332 331 333 333 329 324 326 330 329 321 324 326 328 326 325 328 330 333 332 331 328 323 312 303 296 294 291 289 290 289 292 291 290 291 292 294 294
337 338 338 338 339 338 337 336 337 337 336 336 335 334 332 331 329 332 333 333 331 331 330 326 326 325 324 323 323 321 323 322 324 321 316 312 306 300 300 296 291 290 288 289 290 291 291 291 290 291 292 292
336 336 337 336 337 338 338 339 338 334 334 336 336 335 335 332 330 329 331 330 329 326 325 327 324 323 324 322 320 322 321 319 318 315 313 310 305 298 296 294 292 292 292 289 289 290 290 290 290 290 291 292
335 335 335 337 336 335 334 332 333 336 335 333 333 335 333 333 332 331 329 326 325 324 323 323 323 324 323 323 321 320 320 316 312 313 312 309 304 297 296 294 292 291 289 289 290 290 290 290 290 290 290 291
333 333 334 334 332 334 332 332 332 331 332 333 331 332 332 331 334 333 330 327 324 326 322 323 323 320 319 319 319 317 319 316 312 311 310 308 302 299 296 296 294 292 290 289 289 291 291 290 290 288 289 289
331 330 331 331 332 332 330 333 334 332 327 329 330 330 327 327 327 327 326 325 327 325 323 322 320 319 318 318 318 317 316 318 315 310 309 308 305 298 297 296 296 294 291 289 289 290 291 290 290 290 290 290
327 327 328 329 331 331 331 332 332 330 329 327 326 328 326 327 327 326 325 323 321 321 320 321 319 318 319 318 315 314 315 313 314 312 308 306 303 301 297 297 295 295 293 291 290 290 291 290 290 289 289 290
324 324 326 326 327 328 330 330 330 329 329 326 325 325 326 326 324 323 321 321 320 320 319 317 317 317 316 316 314 315 315 311 313 310 310 308 306 303 299 298 293 295 295 291 290 290 291 290 289 290 289 290
320 322 321 322 324 326 327 327 329 328 324 325 328 325 323 324 322 320 320 321 319 320 316 315 317 317 315 316 315 314 313 311 309 309 307 306 305 303 301 295 293 291 294 291 289 288 290 289 289 290 290 290
314 315 317 318 319 321 322 324 324 326 325 326 326 325 325 325 324 324 323 322 321 317 318 317 316 315 314 314 314 313 311 310 308 308 307 305 304 302 299 297 295 292 291 291 289 288 289 288 289 289 289 290
314 314 315 316 317 316 318 318 318 317 319 320 321 322 322 323 323 323 324 323 321 320 316 315 315 315 315 315 313 311 309 309 309 308 307 305 305 303 302 300 297 295 295 292 289 289 288 288 288 287 288 289
313 314 314 315 315 315 315 315 315 315 315 315 315 316 316 318 319 319 319 319 319 319 316 314 313 312 311 310 309 309 309 311 309 309 309 305 306 300 300 299 295 294 293 292 294 291 289 289 288 287 288 287
311 311 311 311 311 312 312 311 311 311 311 312 312 312 312 313 313 315 316 316 317 315 314 313 313 311 309 309 310 310 309 309 309 308 307 304 306 303 301 298 299 292 293 291 292 290 289 288 289 288 286 288
307 307 307 307 306 307 307 306 306 307 307 307 308 308 308 309 310 311 312 313 314 314 313 312 311 309 308 308 309 309 307 307 306 307 306 302 301 304 303 298 299 295 291 291 290 288 288 287 288 288 288 288
304 304 304 304 303 303 303 303 303 303 303 303 304 304 304 305 305 307 309 310 310 310 310 310 309 308 309 309 308 307 306 304 303 303 304 303 298 298 301 299 298 298 294 290 290 289 288 288 287 288 287 288
301 301 302 302 301 300 300 300 300 300 300 300 300 300 301 302 302 303 305 307 307 307 307 307 307 307 306 307 307 305 304 302 302 302 302 302 300 296 294 294 295 294 293 292 290 289 289 287 287 288 286 288
299 298 297 297 298 297 297 297 296 297 296 296 297 298 298 298 299 300 300 302 304 304 304 304 303 304 305 305 306 305 304 302 302 302 301 299 299 295 294 292 292 292 293 292 291 290 290 287 286 287 287 287
295 295 294 294 293 292 294 294 294 293 293 293 293 294 295 295 295 296 297 299 299 300 301 301 301 300 301 303 303 303 302 302 300 300 299 298 296 296 294 294 292 294 294 292 292 290 288 288 287 289 288 288
293 293 293 292 291 291 291 290 290 290 290 290 291 291 291 292 293 293 293 295 296 297 298 298 298 298 298 299 300 300 300 299 298 298 297 297 296 294 295 292 291 293 293 291 290 288 287 286 287 286 287 287
292 292 292 292 290 291 290 290 290 289 289 289 289 289 289 289 289 290 290 291 292 293 294 294 295 295 295 294 296 296 296 296 296 296 296 296 295 292 290 289 290 291 292 290 288 289 287 285 285 289 286 284
291 292 291 291 291 290 290 289 290 289 289 288 288 287 288 288 288 289 289 289 290 291 292 292 292 292 292 292 293 293 292 292 292 292 293 294 294 293 291 290 288 290 290 289 290 291 288 285 283 286 287 282
289 290 290 289 289 289 288 288 287 287 286 286 287 286 286 286 287 287 288 288 289 290 290 290 291 291 291 291 291 291 291 290 290 290 290 292 293 293 292 291 291 290 290 290 291 291 287 288 287 286 285 285
289 288 288 288 287 286 285 284 284 283 283 283 284 284 284 285 285 286 286 287 287 288 288 288 289 289 289 290 290 290 290 290 290 290 290 290 291 291 292 291 290 290 291 291 292 291 290 291 288 286 286 286
288 287 286 286 285 284 284 282 283 283 283 283 282 283 283 283 284 284 284 285 285 286 287 287 287 287 288 288 288 289 289 289 289 289 289 289 290 290 291 290 289 289 289 290 291 291 292 290 289 289 286 284
Wind_Speed
9 10 9 9 9 9 8 8 7 8 7 7 7 6 5 5 2 5 6 8 9 9 7 7 7 6 7 8 6 5 2 2 6 6 11 8 8 7 7 7 6 6 5 5 6 6 7 7 7 7 5 4
9 9 9 8 9 8 7 8 7 7 7 6 6 5 4 1 3 5 4 5 8 7 5 4 4 5 6 5 4 4 3 4 9 9 9 8 8 7 8 7 6 6 5 6 7 7 8 8 7 7 6 4
5 8 9 8 8 8 7 7 7 6 6 5 4 3 2 3 4 5 4 4 5 4 5 3 4 6 5 4 5 2 3 1 9 10 8 8 7 7 7 6 6 6 6 6 7 8 8 8 7 7 5 3
3 5 8 8 8 8 8 7 7 7 5 5 4 3 3 4 3 4 4 5 4 5 5 4 5 5 4 5 6 4 2 2 9 8 8 7 7 7 7 7 7 7 5 6 7 7 7 7 6 4 3 3
4 5 7 6 8 9 9 8 8 7 6 5 4 3 3 3 2 2 2 3 3 4 4 6 7 4 4 5 6 6 5 7 8 8 8 7 7 7 9 9 9 9 9 9 8 7 7 6 5 3 3 4
5 4 6 5 5 5 6 7 7 6 4 5 3 3 3 2 2 2 2 3 3 2 4 5 7 5 5 5 4 10 8 6 7 7 7 7 7 8 9 9 5 4 6 8 8 7 6 4 3 3 3 3
4 5 5 5 5 5 6 5 5 4 4 3 3 3 3 3 3 3 2 3 4 3 4 6 8 5 4 3 6 8 8 6 8 7 6 7 9 9 9 6 4 4 3 4 6 6 4 3 3 2 2 2
4 4 4 5 5 4 4 5 4 5 6 5 4 5 4 3 4 4 3 4 7 7 4 4 5 10 5 2 1 8 6 5 8 7 6 8 8 6 4 5 3 3 3 3 3 3 3 3 2 2 2 2
5 4 4 5 5 5 4 4 6 7 5 4 5 6 4 4 3 4 4 5 4 5 5 2 4 2 2 2 1 6 4 5 5 5 4 4 4 3 4 4 3 3 3 3 3 3 4 3 2 2 2 2
4 4 4 3 4 5 5 7 7 3 3 6 9 7 6 6 4 4 4 3 4 2 3 4 5 2 4 6 2 1 5 5 5 4 4 4 3 2 3 4 3 3 3 2 3 3 3 3 3 2 2 2
4 4 3 3 3 2 4 3 1 5 7 4 1 3 7 7 7 6 5 2 2 1 1 1 4 3 5 6 6 4 5 5 4 4 4 4 3 2 3 3 3 3 3 3 3 3 3 3 2 3 3 3
4 3 3 2 3 3 1 1 3 2 3 1 2 5 4 4 5 7 7 6 3 5 2 3 4 2 0 1 4 4 2 6 5 5 4 4 3 3 2 3 2 2 2 3 2 2 3 3 3 3 3 3
3 3 3 3 3 2 2 3 6 5 1 0 1 0 2 4 2 3 4 3 2 4 5 3 3 2 0 3 2 5 5 6 6 5 5 4 4 3 3 2 2 1 1 2 2 2 3 3 4 4 3 3
2 2 2 2 1 2 2 2 1 1 4 0 1 0 2 1 2 4 6 5 5 3 2 4 3 3 4 5 1 2 5 3 5 5 4 4 3 4 3 3 1 1 0 1 1 1 1 2 2 3 3 4
2 2 2 1 0 0 1 1 1 1 2 4 3 3 2 3 4 4 4 5 4 3 3 2 2 1 2 4 5 4 4 2 2 2 3 4 4 4 3 2 0 1 0 1 1 0 0 1 2 3 2 2
3 3 3 2 1 0 0 1 2 4 3 3 4 1 3 4 3 3 3 5 3 4 3 2 2 3 5 6 4 3 3 5 5 4 3 3 3 2 2 1 0 1 1 2 2 2 1 1 2 2 3 3
5 4 5 5 5 5 6 4 3 2 3 2 2 2 2 2 2 2 4 4 4 4 4 2 1 2 1 2 2 2 1 3 3 4 4 4 3 3 3 1 0 1 1 1 2 2 2 2 2 2 3 3
7 6 7 7 6 7 7 7 8 8 7 7 7 6 7 6 6 3 0 3 4 4 4 4 5 4 4 3 3 3 3 4 3 2 3 3 3 2 2 2 1 0 3 2 2 2 2 3 3 2 2 1
9 8 9 8 8 9 9 8 9 9 9 9 9 8 8 9 7 6 6 7 3 0 1 0 0 1 3 1 1 3 3 4 2 3 4 4 4 2 1 2 1 2 3 3 4 3 2 3 3 2 3 3
10 10 9 9 9 9 9 9 10 9 8 8 8 10 11 12 10 9 9 5 4 5 4 4 4 3 3 4 3 2 2 1 2 3 4 3 5 5 4 1 3 2 3 2 4 3 3 2 2 4 3 4
11 11 11 11 10 10 11 10 9 8 8 10 10 8 8 7 9 10 10 9 8 6 5 5 5 4 4 3 4 4 4 4 5 5 4 4 5 3 0 2 3 3 2 2 2 3 3 3 2 4 3 4
10 10 10 10 10 11 12 11 10 9 9 10 9 9 10 9 10 10 10 11 10 10 9 8 6 5 5 5 5 5 4 4 4 4 3 3 3 4 4 3 3 4 3 3 4 4 3 4 3 4 4 3
8 9 10 10 10 12 12 10 10 10 11 9 9 10 10 11 10 10 10 11 10 10 8 8 7 6 7 6 4 5 5 5 5 5 4 4 2 4 3 2 1 0 2 3 3 4 4 3 4 4 3 3
8 9 9 10 10 12 10 9 9 10 9 8 9 9 10 10 10 9 8 9 8 9 8 8 7 7 7 6 5 7 7 6 5 4 4 4 3 3 2 2 2 2 1 1 3 4 4 3 4 5 4 4
8 7 7 10 11 9 7 7 8 10 8 9 8 8 9 10 9 10 12 11 10 9 7 7 7 8 7 6 7 8 6 4 5 5 4 3 3 2 1 1 1 1 2 2 4 2 3 5 3 5 3 5
8 6 6 8 7 7 8 8 9 9 9 9 9 11 11 10 10 11 10 10 10 10 10 9 9 10 10 10 8 7 6 6 6 6 5 3 3 4 2 1 1 1 0 2 1 4 6 4 6 3 2 6
9 7 6 6 5 6 7 6 6 7 6 7 9 10 10 10 10 10 10 9 9 9 9 9 10 9 9 9 8 8 10 9 10 8 7 6 4 3 3 1 2 1 1 0 0 1 2 3 7 4 3 2
5 7 7 8 9 9 9 6 5 7 9 10 12 12 10 10 9 10 9 10 9 9 9 9 9 8 8 9 8 8 9 10 10 9 9 8 6 3 3 4 3 2 2 1 3 5 2 3 1 8 2 3
4 6 6 6 7 6 6 8 9 10 11 9 8 9 11 9 8 9 9 9 9 9 9 9 8 8 8 9 8 8 9 8 7 7 6 8 8 8 4 5 3 2 2 2 3 2 3 4 2 2 4 9
8 8 8 7 8 9 9 10 9 10 7 7 8 7 4 9 9 9 9 9 9 9 8 9 8 8 9 8 8 7 7 6 7 8 8 7 5 8 7 3 4 5 4 2 2 1 1 1 3 6 5 5
9 11 11 12 10 8 8 9 6 3 3 5 5 6 8 8 9 10 10 10 9 9 9 8 8 8 8 8 7 7 8 8 7 6 6 6 7 6 6 6 7 6 6 5 4 5 3 3 2 1 3 4
Wind_Direction
196 198 203 193 198 203 203 200 209 209 214 213 216 219 216 222 197 167 182 202 200 191 185 189 180 175 165 159 153 128 134 353 354 82 111 104 103 93 79 60 50 23 24 35 46 58 61 62 58 52 54 57
196 196 200 198 194 199 201 195 205 214 215 215 215 219 216 165 164 176 183 200 221 209 189 210 190 166 176 168 147 137 39 1 100 105 106 107 102 88 79 63 48 37 25 33 41 48 55 55 52 47 50 51
210 201 197 195 195 197 198 198 204 210 212 210 207 196 177 118 151 165 168 190 213 198 183 213 170 183 177 164 151 131 32 335 122 114 114 115 101 90 77 69 52 37 32 33 37 46 54 52 49 45 43 39
200 210 205 195 195 194 195 198 204 207 205 196 190 181 145 126 141 164 164 180 198 190 195 183 195 178 163 172 146 63 43 73 124 125 121 117 110 97 85 73 58 41 27 38 42 47 52 49 44 39 31 36
193 196 202 207 197 195 193 194 197 205 205 195 186 183 136 119 134 163 154 169 180 182 181 178 181 176 173 146 101 92 86 102 126 130 128 121 112 103 91 74 59 39 32 33 38 46 49 46 44 22 28 28
190 184 190 196 199 200 197 196 195 195 193 189 181 164 146 142 158 158 162 168 169 180 180 178 182 172 171 154 124 120 113 126 140 135 132 123 114 105 89 77 58 44 26 26 27 37 48 47 33 19 21 29
193 182 180 193 195 191 192 189 192 193 186 181 177 169 164 163 164 157 167 166 162 179 199 185 179 174 190 151 144 142 143 153 139 137 128 120 106 94 88 75 70 65 46 24 16 30 37 42 27 16 28 29
191 187 178 185 187 187 186 185 190 194 185 187 183 180 176 178 160 168 172 185 172 175 186 212 211 183 174 62 237 131 118 118 129 130 115 107 100 87 85 90 64 70 59 38 18 31 32 27 12 24 8 10
196 182 181 185 184 181 184 191 189 190 188 192 192 190 186 183 180 167 173 173 172 189 179 194 190 192 133 140 215 126 119 105 108 94 100 84 79 96 108 86 72 70 53 29 25 23 19 15 6 8 1 353
184 177 190 186 188 181 186 205 212 214 235 181 179 192 192 179 175 161 144 144 161 206 309 202 178 250 179 140 124 111 132 122 130 111 103 110 114 105 89 100 106 87 89 55 14 8 7 14 359 353 344 349
177 185 179 174 167 188 193 219 249 232 184 194 247 217 174 168 172 166 155 185 146 203 146 229 316 186 185 161 151 186 156 115 105 121 132 141 138 127 112 100 91 87 89 85 48 360 349 355 359 350 337 339
178 170 166 163 161 196 240 215 268 200 292 324 168 171 235 243 205 185 173 163 170 186 146 252 178 166 236 101 133 181 164 121 129 146 143 139 127 130 120 129 96 83 73 83 84 25 341 338 342 341 326 315
157 146 155 155 167 192 156 222 232 274 122 13 103 77 203 188 187 145 129 155 274 178 162 173 212 163 126 319 191 162 166 150 157 141 153 165 160 146 147 142 132 86 61 66 75 75 344 338 333 337 334 323
110 117 145 151 155 156 159 208 248 191 310 84 96 93 125 156 183 168 156 166 139 142 172 178 195 277 194 155 228 223 139 134 166 166 142 146 146 156 166 175 175 118 81 37 52 74 41 322 316 313 314 319
66 76 88 82 64 60 187 183 172 278 253 284 268 163 164 156 148 142 133 127 128 149 167 163 152 198 262 188 179 208 136 119 142 127 142 148 164 178 174 191 136 137 224 337 10 70 57 297 346 321 323 318
94 94 103 101 100 185 334 152 230 239 225 243 255 224 173 187 145 146 129 139 153 169 175 211 200 194 194 198 170 189 164 149 125 128 116 120 127 126 136 133 64 36 5 329 345 357 18 25 8 336 340 336
31 33 38 40 31 15 13 2 350 344 337 319 306 328 280 273 159 166 153 150 157 162 165 157 168 200 239 27 60 58 58 85 103 119 130 114 112 104 99 109 50 34 45 355 331 360 341 6 348 1 360 338
51 50 54 50 47 38 38 29 35 20 17 17 13 20 15 7 359 349 271 165 170 177 169 172 177 194 211 191 147 132 134 128 128 111 122 131 122 119 140 172 242 354 296 298 316 334 331 354 333 348 342 323
58 58 62 60 59 58 55 55 52 38 33 35 27 24 22 17 21 23 20 11 9 11 52 75 171 1 360 42 97 134 142 135 148 166 170 150 144 90 115 163 194 199 244 295 300 306 342 312 321 337 309 306
58 61 64 64 63 64 61 60 55 51 51 51 42 36 35 26 22 17 9 22 58 62 42 57 58 41 61 65 58 37 26 99 176 162 139 157 161 173 216 195 250 172 229 260 276 299 328 332 331 309 302 293
60 60 61 57 55 53 55 52 48 45 40 46 44 47 54 40 42 36 29 22 14 30 37 62 70 55 66 88 93 88 83 59 36 24 360 18 4 359 46 215 290 303 318 291 298 326 319 319 313 293 272 271
61 63 64 62 57 56 54 46 44 39 40 40 33 31 33 30 43 41 42 43 40 45 33 29 30 32 59 70 67 70 78 77 75 67 58 54 51 33 21 4 350 328 343 335 322 317 302 298 307 284 287 281
53 56 65 65 59 55 51 45 45 41 44 36 33 34 28 31 33 29 37 42 43 53 43 40 34 37 23 26 50 68 68 62 64 74 83 85 72 74 78 70 62 355 1 337 316 296 292 308 285 283 283 276
53 56 48 54 51 52 44 48 46 41 41 28 33 28 33 33 35 31 34 39 43 58 54 51 46 43 34 37 48 51 38 27 32 48 72 83 102 82 90 95 113 118 118 269 274 283 298 267 261 274 255 275
44 49 51 54 53 59 41 43 47 48 36 40 36 28 34 34 35 32 33 30 34 33 41 49 49 51 45 50 53 53 46 38 40 31 37 52 33 68 56 23 38 135 148 18 320 328 320 315 255 255 263 261
62 49 61 85 71 72 54 45 44 43 35 36 38 38 33 32 32 35 35 32 36 39 36 37 36 36 32 31 40 58 54 47 43 35 31 29 41 18 53 342 338 297 41 22 34 331 320 322 319 295 231 250
71 68 59 75 73 73 81 63 66 63 49 41 46 40 34 32 31 31 36 32 36 43 39 43 46 41 38 37 31 43 41 35 34 24 27 30 45 4 3 43 340 355 35 304 213 229 320 328 350 327 336 344
75 86 92 81 85 75 73 69 56 65 48 41 40 35 31 33 29 30 37 32 35 43 44 46 51 49 47 44 41 49 48 40 35 25 21 16 20 35 13 359 348 4 357 94 1 343 21 278 47 319 325 314
67 83 72 76 79 76 72 49 43 45 37 34 37 41 34 26 26 32 38 33 34 38 41 41 44 51 50 49 42 49 53 48 43 36 33 26 29 27 24 358 344 355 12 352 11 349 340 341 344 236 290 335
73 69 76 68 60 53 55 55 40 40 34 27 35 42 39 38 34 35 40 36 35 35 37 40 38 44 48 46 42 44 56 50 41 34 34 25 41 34 24 14 22 358 1 350 350 10 7 10 306 325 321 0
78 74 71 75 79 83 76 84 58 52 43 52 43 55 48 43 39 35 38 35 36 34 35 40 38 41 47 49 45 39 48 45 39 35 35 21 41 38 34 39 44 22 356 357 38 25 331 314 275 238 327 299